Regional Weather Roundup
Issued by NWS

Home | Current Version | Previous Version | Graphics & Text | Print | Product List | Glossary On
Versions: 1 2 3 4 5 6 7 8 9 10 11 12 13 14 15 16 17 18 19 20 21 22 23 24 25 26 27 28 29 30 31 32 33 34 35 36 37 38 39 40 41 42 43 44 45 46 47 48 49 50
000
ASUS43 KDTX 221310
RWRMI
MICHIGAN HOURLY REGIONAL WEATHER ROUNDUP
NATIONAL WEATHER SERVICE DETROIT/PONTIAC MI
900 AM EDT WED OCT 22 2014

NOTE: "FAIR" INDICATES FEW OR NO CLOUDS BELOW 12,000 FEET WITH NO
SIGNIFICANT WEATHER AND/OR OBSTRUCTION TO VISIBILITY.

MIZ047>049-052>055-059>063-066>070-074>076-081>083-221400-
SOUTHEAST LOWER MICHIGAN

CITY           SKY/WX    TMP DP  RH WIND       PRES   REMARKS
ADRIAN         CLOUDY    43  37  79 N10       30.33R
ALMA           CLOUDY    41  37  85 CALM      30.36S
ANN ARBOR      CLOUDY    45  37  73 N9        30.32R
BAD AXE        CLOUDY    44  40  85 N6        30.35R
CARO           CLOUDY    44  38  81 CALM      30.35R
DETROIT CITY   CLOUDY    48  38  68 N10       30.32R
DETROIT        CLOUDY    46  39  76 N12G17    30.32R
FLINT          CLOUDY    45  37  73 N9        30.35R
GROSSE ILE     CLOUDY    46  39  76 N10       30.29R
HILLSDALE      CLOUDY    41  38  89 N3        30.31S
HOWELL         CLOUDY    41  37  86 N5        30.33R

CITY           SKY/WX    TMP DP  RH WIND       PRES   REMARKS
JACKSON        CLOUDY    41  37  86 N7        30.33R
LAMBERTVILLE   CLOUDY    45  37  76 NW5       30.32R
LANSING        CLOUDY    40  36  86 NW3       30.35R
LAPEER         CLOUDY    44  38  80 N6        30.34R
MASON          CLOUDY    40  37  87 N3        30.34R
MONROE         CLOUDY    46  39  76 N7        30.30R
MT. CLEMENS    CLOUDY    46  40  79 N13       30.29R
PONTIAC        CLOUDY    43  37  79 N12G20    30.31R
PORT HOPE        N/A     46  39  76 NE12      30.33R
PORT HURON     CLOUDY    45  39  81 N5        30.31R
TRI CITIES     CLOUDY    44  36  73 N8        30.37R
TROY           CLOUDY    46  39  75 N10       30.33R
SAGINAW HB     CLOUDY    43  37  81 NW5       30.35R
$$
MIZ043>046-050>051-056>058-064>065-071>073-077>080-221400-
SOUTHWEST LOWER MICHIGAN

CITY           SKY/WX    TMP DP  RH WIND       PRES   REMARKS
BATTLE CREEK   CLOUDY    39  35  86 NE5       30.34S
BENTON HARBOR  CLEAR     30  30 100 CALM      30.36R FOG
BIG RAPIDS     MOCLDY    27  27 100 CALM      30.37R
COLDWATER      CLOUDY    40  37  91 CALM      30.33R
FREMONT        FAIR      30  29  99 CALM      30.37R
HOLLAND        CLEAR     34  31  88 CALM      30.37R
GRAND RAPIDS   PTCLDY    34  31  88 NW3       30.36R
IONIA          CLOUDY    38  35  91 CALM      30.35R
KALAMAZOO      MOCLDY    32  30  92 NE3       30.35R
LUDINGTON      PTCLDY    27  26  96 CALM      30.40R
MARSHALL       CLOUDY    39  36  90 NW3       30.33R
MOUNT PLEASANT CLOUDY    40  35  83 CALM      30.37R
MUSKEGON       CLEAR     33  29  85 E5        30.38R WCI  29
SOUTH HAVEN    CLEAR     34  32  95 E3        30.36R
$$
MIZ016>042-221400-
NORTHERN LOWER MICHIGAN

CITY           SKY/WX    TMP DP  RH WIND       PRES   REMARKS
ALPENA         CLOUDY    41  34  76 N7        30.39R
BEAVER ISLAND  CLEAR     29  29 100 CALM      30.40R
BELLAIRE       MOCLDY    27  25  94 CALM      30.42R
CADILLAC       CLOUDY    31  30  97 E5        30.36R WCI  26
CHARLEVOIX     CLEAR     32  32 100 CALM      30.43R
FRANKFORT      PTCLDY    28  25  89 CALM      30.40R
GAYLORD        CLOUDY    34  29  82 E3        30.37S
GRAYLING       CLOUDY    35  32  89 NE6       30.39R WCI  30
HARBOR SPRINGS FOG       31  29  95 CALM      30.40R VSB 3/4
HOUGHTON LAKE  CLOUDY    36  32  85 NE5       30.38R WCI  32
MANISTEE       PTCLDY    28  25  86 SE6       30.40R WCI  22
OSCODA         CLOUDY    42  37  81 N6        30.36R
PELLSTON       PTCLDY    28  27  96 CALM      30.40S
ROGERS CITY    CLOUDY    39  34  81 NE5       30.40R
TRAVERSE CITY  PTCLDY    28  24  85 CALM      30.40R
$$
MIZ007>008-015-221400-
EASTERN UPPER MICHIGAN

CITY           SKY/WX    TMP DP  RH WIND       PRES   REMARKS
KINROSS        PTCLDY    32  32 100 CALM      30.40S
MACKINAC ISLAN PTCLDY    38  33  82 E3        30.40R
NEWBERRY       PTCLDY    28  27  96 CALM      30.40R
S. S. MARIE    PTCLDY    32  29  88 CALM      30.45R
MUNISING         N/A     32  28  85 SW3       30.38R
$$
MIZ004>006-011>014-085-221400-
CENTRAL UPPER MICHIGAN

CITY           SKY/WX    TMP DP  RH WIND       PRES   REMARKS
MANISTIQUE     PTCLDY    28  27  97 CALM      30.39R
ESCANABA       MOCLDY    28  27  93 CALM      30.38R
MENOMINEE      PTCLDY    28  27  93 NW3       30.37R
SAWYER-GWINN   CLOUDY    27  25  93 CALM      30.36R
$$
MIZ001>003-009>011-084-221400-
WESTERN UPPER MICHIGAN

CITY           SKY/WX    TMP DP  RH WIND       PRES   REMARKS
IRON MOUNTAIN  FOG       29  28  96 NW3       30.36R VSB 1/4
HOUGHTON       CLEAR     29  25  85 CALM      30.32R
COPPER HARBOR    N/A     38  32  79 SW12G18   30.32S WCI  30
IRONWOOD       CLEAR     37  34  87 S8        30.26S WCI  31
$$

ABBREVIATIONS USED IN REMARKS
   TC - TEMPERATURE IN CELSIUS
  WCI - WIND CHILL INDEX
   HX - HEAT INDEX
  VSB - VISIBILITY




USA.gov is the U.S. government's official web portal to all federal, state and local government web resources and services.